Notices

What's New in latest Release from April 7th, 2021:

- Updated Glossary, including Speed of Maximum Gust, and Total Hourly Precipitation

- Updated national and regional climate services offices contacts and prices information

- Addition of station inventory lists for 1981-2010, 1971-2000, and 1961-1990 Normals.

If you haven't already, please take our survey and provide feedback about our website: https://eccc.sondage-survey.ca/f/LanguageSelection.aspx?s=442ca660-fcf1-47c0-95a9-59707d6fd709

Hourly Data Report for August 08, 2017

TORONTO CITY
ONTARIO

43°40'00.000" N
79°24'00.000" W
112.50 m
6158355
71508
XTO

Download Data

Hourly Data (August 2017)
Hourly Data Report for August 8, 2017
TIME
LST
Temp Definition
°C
Dew Point Definition
°C
Rel Hum Definition
%
Precip. Amount Definition
mm

Wind Dir Definition
10's deg

Wind Spd Definition
km/h
Visibility Definition
km
Stn Press Definition
kPa
Hmdx Definition


Wind Chill Definition


Weather Definition


00:00 15.6 13.1 85 0.0 LegendMM LegendMM   100.20     LegendNANA
01:00 15.8 13.1 84 0.0 LegendMM LegendMM   100.21     LegendNANA
02:00 16.2 13.2 82 0.0 LegendMM LegendMM   100.21     LegendNANA
03:00 16.2 12.9 81 0.0 LegendMM LegendMM   100.23     LegendNANA
04:00 16.2 12.4 78 0.0 LegendMM LegendMM   100.24     LegendNANA
05:00 14.7 11.6 82 0.0 LegendMM LegendMM   100.26     LegendNANA
06:00 15.3 11.3 77 0.0 LegendMM LegendMM   100.32     LegendNANA
07:00 16.9 11.6 71 0.0 LegendMM LegendMM   100.36     LegendNANA
08:00 19.0 12.1 65 0.0 LegendMM LegendMM   100.39     LegendNANA
09:00 20.4 10.2 52 0.0 LegendMM LegendMM   100.43     LegendNANA
10:00 22.2 9.1 43 0.2 LegendMM LegendMM   100.42     LegendNANA
11:00 23.4 8.9 40 0.0 LegendMM LegendMM   100.42     LegendNANA
12:00 23.9 6.7 33 0.0 LegendMM LegendMM   100.42     LegendNANA
13:00 24.3 12.0 46 0.0 LegendMM LegendMM   100.42 27   LegendNANA
14:00 24.1 9.6 40 0.0 LegendMM LegendMM   100.40 25   LegendNANA
15:00 24.5 10.5 41 0.0 LegendMM LegendMM   100.35 26   LegendNANA
16:00 24.1 11.7 46 0.0 LegendMM LegendMM   100.33 26   LegendNANA
17:00 23.9 13.6 52 0.0 LegendMM LegendMM   100.29 27   LegendNANA
18:00 24.0 14.2 54 0.0 LegendMM LegendMM   100.31 27   LegendNANA
19:00 24.6 12.6 47 0.0 LegendMM LegendMM   100.34 27   LegendNANA
20:00 22.9 13.1 54 0.0 LegendMM LegendMM   100.40 26   LegendNANA
21:00 22.4 13.2 56 0.0 LegendMM LegendMM   100.46 25   LegendNANA
22:00 21.8 13.1 58 0.0 LegendMM LegendMM   100.48 25   LegendNANA
23:00 20.9 13.2 62 0.0 LegendMM LegendMM   100.49     LegendNANA

Notes on Data Quality.

Legend

  • E = Estimated
  • M = Missing
  • NA = Not Available*
  • [empty] = Indicates an unobserved value
Date modified: